TimeEST,TemperatureF,Dew PointF,Humidity,Sea Level PressureIn,VisibilityMPH,Wind Direction,Wind SpeedMPH,Gust SpeedMPH,PrecipitationIn,Events,Conditions,WindDirDegrees,DateUTC
12:54 AM,55.0,48.0,77,30.03,-9999.0,SSW,8.1,-,N/A,,Unknown,210,2013-11-07 05:54:00
1:54 AM,55.0,50.0,83,30.00,-9999.0,SW,4.6,-,N/A,,Unknown,230,2013-11-07 06:54:00
2:54 AM,55.0,51.1,86,29.97,-9999.0,SW,5.8,-,N/A,,Unknown,230,2013-11-07 07:54:00
3:54 AM,55.9,51.1,84,29.94,-9999.0,SSW,5.8,-,N/A,,Unknown,200,2013-11-07 08:54:00
4:54 AM,57.0,52.0,83,29.90,-9999.0,Variable,4.6,-,N/A,,Unknown,0,2013-11-07 09:54:00
5:54 AM,57.9,53.1,84,29.87,-9999.0,South,9.2,18.4,N/A,,Unknown,190,2013-11-07 10:54:00
6:54 AM,57.9,53.1,84,29.86,-9999.0,SSW,6.9,-,N/A,,Unknown,210,2013-11-07 11:54:00
7:54 AM,57.9,53.1,84,29.86,-9999.0,SW,9.2,-,N/A,,Unknown,220,2013-11-07 12:54:00
8:54 AM,57.0,54.0,89,29.86,-9999.0,SW,4.6,-,0.01,,Unknown,220,2013-11-07 13:54:00
9:54 AM,57.0,55.0,93,29.84,-9999.0,SW,6.9,-,0.01,,Unknown,230,2013-11-07 14:54:00
10:54 AM,57.0,54.0,89,29.83,-9999.0,SW,4.6,-,N/A,,Unknown,220,2013-11-07 15:54:00
11:54 AM,57.9,54.0,87,29.78,-9999.0,Calm,Calm,-,N/A,,Unknown,0,2013-11-07 16:54:00
12:54 PM,53.1,48.0,83,29.82,-9999.0,Calm,Calm,-,0.03,,Unknown,0,2013-11-07 17:54:00
1:54 PM,50.0,46.0,86,29.84,-9999.0,North,9.2,-,0.07,,Unknown,360,2013-11-07 18:54:00
2:54 PM,46.9,41.0,80,29.85,-9999.0,North,10.4,19.6,0.03,,Unknown,350,2013-11-07 19:54:00
3:54 PM,48.0,37.9,68,29.87,-9999.0,Variable,4.6,-,N/A,,Unknown,0,2013-11-07 20:54:00
4:54 PM,46.9,37.0,68,29.89,-9999.0,Variable,5.8,-,N/A,,Unknown,0,2013-11-07 21:54:00
5:54 PM,45.0,33.1,63,29.92,-9999.0,North,8.1,-,N/A,,Unknown,10,2013-11-07 22:54:00
6:54 PM,43.0,30.9,62,29.95,-9999.0,Variable,5.8,-,N/A,,Unknown,0,2013-11-07 23:54:00
7:54 PM,42.1,28.9,60,29.95,-9999.0,Variable,4.6,-,N/A,,Unknown,0,2013-11-08 00:54:00
8:54 PM,41.0,30.0,65,29.96,-9999.0,NNW,3.5,-,N/A,,Unknown,340,2013-11-08 01:54:00
9:54 PM,37.9,30.9,76,29.96,-9999.0,Calm,Calm,-,N/A,,Unknown,0,2013-11-08 02:54:00
10:54 PM,35.1,32.0,89,29.96,-9999.0,Calm,Calm,-,N/A,,Unknown,0,2013-11-08 03:54:00
11:54 PM,33.1,30.0,89,29.96,-9999.0,Calm,Calm,-,N/A,,Unknown,0,2013-11-08 04:54:00